Weather History for Sedalia, MO

Change the Weather History Date:

Saturday, December 29, 2012

  Actual Average Record
Temperature  
Mean Temperature 28 °F 32 °F  
Max Temperature 33 °F 41 °F 70 °F (1984)
Min Temperature 22 °F 23 °F -12 °F (1983)
Degree Days  
Heating Degree Days 37 33  
Month to date heating degree days 726 870  
Since 1 July heating degree days 1603 1715  
Cooling Degree Days 0 0  
Month to date cooling degree days 0 0  
Year to date cooling degree days 2111 1490  
Moisture  
Dew Point 17 °F    
Average Humidity 66    
Maximum Humidity 81    
Minimum Humidity 51    
Precipitation  
Precipitation T in 0.08 in 0.91 in (1990)
Month to date precipitation 0.50 2.15  
Year to date precipitation 29.92 40.94  
Sea Level Pressure  
Sea Level Pressure 30.22 in    
Wind  
Wind Speed 11 mph (West)    
Max Wind Speed 20 mph    
Max Gust Speed 25 mph    
Visibility 8 miles    
Events Snow    
T = Trace of Precipitation, MM = Missing Value Source: NWS Daily Summary

Daily Weather History Graph

Daily Weather History Graph

Search for Another Location

Airport:

Trip Planner

Search our weather history database for the weather conditions in past years. The results will help you decide how hot, cold, wet, or windy it might be!

Date:

Astronomy

Dec. 29, 2012 Rise Set
Actual Time 7:30 AM CST 4:59 PM CST
Civil Twilight 7:00 AM CST 5:29 PM CST
Nautical Twilight 6:27 AM CST 6:03 PM CST
Astronomical Twilight 5:54 AM CST 6:35 PM CST
Moon 6:32 PM CST (12/29) 8:05 AM CST (12/29)
Length of Visible Light 10h 29m
Length of Day
9h 29m
Full, 98% of the Moon is Illuminated
Dec 29
Full
Jan 4
Last Quarter
Jan 11
New
Jan 18
First Quarter
Jan 26
Full

Hourly Weather History & Observations

Time (CST) Temp. Windchill Dew Point Humidity Pressure Visibility Wind Dir Wind Speed Gust Speed Precip Events Conditions
12:10 AM 26.6 °F 15.2 °F 19.4 °F 74% 30.02 in 5.0 mi WNW 13.8 mph - 0.00 in Snow Light Snow
12:23 AM 26.6 °F 15.7 °F 17.6 °F 69% 30.03 in 5.0 mi WNW 12.7 mph 21.9 mph 0.00 in Snow Light Snow
12:53 AM 25.0 °F 13.1 °F 18.0 °F 75% 30.06 in 5.0 mi WNW 13.8 mph - 0.00 in Snow Light Snow
1:53 AM 24.1 °F 13.7 °F 19.0 °F 81% 30.07 in 2.5 mi WNW 10.4 mph - 0.00 in Snow Light Snow
2:03 AM 24.8 °F 14.0 °F 15.8 °F 69% 30.05 in 3.0 mi WNW 11.5 mph - 0.00 in Snow Light Snow
2:46 AM 24.8 °F 14.0 °F 17.6 °F 74% 30.07 in 4.0 mi WNW 11.5 mph - 0.00 in Snow Light Snow
2:53 AM 24.1 °F 13.7 °F 18.0 °F 77% 30.11 in 4.0 mi WNW 10.4 mph - 0.00 in   Haze
3:53 AM 24.1 °F 13.1 °F 19.0 °F 81% 30.12 in 4.0 mi WNW 11.5 mph - 0.00 in Snow Light Snow
4:53 AM 24.1 °F 12.0 °F 19.0 °F 81% 30.13 in 6.0 mi NW 13.8 mph 24.2 mph 0.00 in   Haze
5:36 AM 24.8 °F 13.4 °F 17.6 °F 74% 30.12 in 6.0 mi NW 12.7 mph - N/A   Haze
5:53 AM 23.0 °F 12.4 °F 18.0 °F 81% 30.16 in 6.0 mi NW 10.4 mph - N/A   Haze
6:53 AM 23.0 °F 8.3 °F 16.0 °F 74% 30.19 in 9.0 mi NW 19.6 mph 23.0 mph N/A   Overcast
7:53 AM 21.9 °F 8.7 °F 16.0 °F 78% 30.23 in 7.0 mi WNW 15.0 mph - N/A   Overcast
8:53 AM 23.0 °F 11.1 °F 17.1 °F 78% 30.26 in 8.0 mi WNW 12.7 mph - N/A   Overcast
9:53 AM 23.0 °F 11.7 °F 16.0 °F 74% 30.29 in 7.0 mi WNW 11.5 mph - N/A   Overcast
10:53 AM 23.0 °F 11.7 °F 16.0 °F 74% 30.31 in 8.0 mi WNW 11.5 mph - N/A   Overcast
11:43 AM 26.6 °F 16.8 °F 17.6 °F 69% 30.26 in 10.0 mi West 10.4 mph - N/A   Scattered Clouds
11:53 AM 27.0 °F 17.3 °F 18.0 °F 69% 30.29 in 10.0 mi WNW 10.4 mph 16.1 mph N/A   Scattered Clouds
12:53 PM 28.9 °F 18.6 °F 17.1 °F 61% 30.27 in 10.0 mi West 12.7 mph - N/A   Partly Cloudy
1:53 PM 32.0 °F 23.0 °F 17.1 °F 54% 30.27 in 10.0 mi West 11.5 mph 19.6 mph N/A   Clear
2:53 PM 33.1 °F 24.9 °F 17.1 °F 52% 30.28 in 10.0 mi West 10.4 mph 18.4 mph N/A   Clear
3:53 PM 33.1 °F 23.9 °F 17.1 °F 52% 30.30 in 10.0 mi West 12.7 mph - N/A   Clear
5:53 PM 30.0 °F 26.5 °F 16.0 °F 56% 30.32 in 10.0 mi WSW 3.5 mph - N/A   Clear
6:53 PM 28.9 °F 23.9 °F 16.0 °F 58% 30.33 in 10.0 mi WSW 4.6 mph - N/A   Clear
7:53 PM 28.0 °F 20.0 °F 16.0 °F 61% 30.34 in 10.0 mi SW 8.1 mph - N/A   Clear
8:53 PM 28.0 °F 20.0 °F 16.0 °F 61% 30.34 in 10.0 mi SW 8.1 mph - N/A   Clear
9:53 PM 28.0 °F 20.8 °F 16.0 °F 61% 30.34 in 10.0 mi SW 6.9 mph - N/A   Clear
10:53 PM 27.0 °F 18.7 °F 15.1 °F 61% 30.35 in 10.0 mi SSW 8.1 mph - N/A   Clear
11:53 PM 27.0 °F 16.1 °F 16.0 °F 63% 30.35 in 10.0 mi SW 12.7 mph - N/A   Clear